Location: Castelbiague
(43.0361°N, 0.9246°E)
Time: 03:34:55
(UTC+00:00)

NOSS 3-2 (C) - Visible Passes

Search period start: 17 October 2021 00:00
Search period end: 27 October 2021 00:00
Orbit: 773 x 1439 km, 63.4° (Epoch: 15 October)

Date Brightness Start Highest point End Pass type
(mag) Time Alt. Az. Time Alt. Az. Time Alt. Az.
17 Oct 5.9 19:19:02 10° NNW 19:22:09 13° N 19:25:29 10° NNE visible
17 Oct 5.8 21:10:49 10° NNW 21:13:42 18° N 21:13:42 18° N visible
18 Oct 5.8 18:33:11 10° NW 18:36:29 14° N 18:40:00 10° NNE visible
18 Oct 5.7 20:26:06 10° NNW 20:30:12 17° NNE 20:30:12 17° NNE visible
18 Oct 6.2 22:16:33 10° NNW 22:17:37 15° NNW 22:17:37 15° NNW visible
19 Oct 5.7 17:47:06 10° NW 17:50:52 16° NNW 17:54:57 10° NNE visible
19 Oct 5.7 19:41:14 10° NNW 19:45:00 15° NNE 19:46:42 14° NNE visible
19 Oct 5.9 21:31:56 10° NNW 21:34:07 19° NNW 21:34:07 19° NNW visible
20 Oct 5.8 18:56:04 10° NNW 18:59:19 14° N 19:02:46 10° NNE visible
20 Oct 5.6 20:47:19 10° NNW 20:50:39 21° N 20:50:39 21° N visible
20 Oct 6.4 22:37:44 10° NNW 22:38:04 12° NNW 22:38:04 12° NNW visible
21 Oct 5.8 18:10:28 10° NNW 18:13:37 14° N 18:16:58 10° NNE visible
21 Oct 5.5 20:02:40 10° NNW 20:07:11 20° NNE 20:07:11 20° NNE visible
21 Oct 6.0 21:53:03 10° NNW 21:54:37 18° NNW 21:54:37 18° NNW visible
22 Oct 5.7 17:24:31 10° NW 17:27:58 15° NNW 17:31:41 10° NNE visible
22 Oct 5.6 19:17:55 10° NNW 19:22:08 16° NNE 19:23:45 15° NNE visible
22 Oct 5.7 21:08:26 10° NNW 21:11:10 23° NNW 21:11:10 23° NNW visible
23 Oct 5.7 18:32:57 10° NNW 18:36:29 14° N 18:40:14 10° NE visible
23 Oct 5.4 20:23:50 10° NNW 20:27:45 25° N 20:27:45 25° N visible
23 Oct 6.3 22:14:18 10° NW 22:15:10 14° NW 22:15:10 14° NW visible
24 Oct 5.7 17:47:37 10° NNW 17:50:46 13° N 17:54:08 10° NNE visible
24 Oct 5.3 19:39:12 10° NNW 19:44:20 22° NNE 19:44:20 22° NNE visible
24 Oct 5.8 21:29:35 10° NNW 21:31:46 22° NNW 21:31:46 22° NNW visible
25 Oct 5.5 18:54:32 10° NNW 18:59:13 18° NNE 19:00:58 17° NE visible
25 Oct 5.4 20:44:56 10° NNW 20:48:24 28° N 20:48:24 28° N visible
25 Oct 6.5 22:35:50 10° NW 22:35:50 10° NW 22:35:50 10° NW visible
26 Oct 5.6 18:09:42 10° NNW 18:13:36 15° NNE 18:17:37 10° NE visible
26 Oct 5.1 20:00:19 10° NNW 20:05:02 31° NNE 20:05:02 31° NNE visible
26 Oct 6.1 21:50:55 10° NW 21:52:29 18° NW 21:52:29 18° NW visible
